Tracking 29892 objects as of 21-Nov-2024
HD Live streaming from Space Station
objects crossing your sky now

STARLINK-30876

Track STARLINK-30876 now!
10-day predictions
STARLINK-30876 is classified as:


NORAD ID: 58404
Int'l Code: 2023-180C
Perigee: 565.1 km
Apogee: 567.4 km
Inclination: 43.0 °
Period: 95.8 minutes
Semi major axis: 6937 km
RCS: Unknown
Launch date: November 22, 2023
Source: United States (US)
Launch site: AIR FORCE EASTERN TEST RANGE (AFETR)
Your satellite tracking list
Your tracking list is empty




NASA's NSSDC Master Catalog

Two Line Element Set (TLE):
1 58404U 23180C   24325.78952831 -.00000229  00000-0 -18606-5 0  9995
2 58404  43.0032 111.4603 0001673 269.2118  90.8533 15.02530172 56293
Source of the keplerian elements: AFSPC